Location: Cortada Guamacho
(10.5667°N, 67.0833°W)
Time: 10:06:01
(UTC+00:00)

SWIFT - Pass Details

Date: 05 July 2022
Orbit: 539 x 553 km, 20.6° (Epoch: 14 August)

Event Time Altitude Azimuth Distance (km) Brightness Sun altitude
Exits shadow 08:10:24 25° 117° (ESE) 1,111 4.1 -27.2°
Drops below altitude 10° 08:12:11 10° 114° (ESE) 1,779 5.3 -26.8°
Sets 08:14:27 0° 112° (ESE) 2,670 6.3 -26.4°
